GFSMW_850_thetae_006.txt.gz
Theta_e
324 324 324 325 325 329 330 326 325 325 324 323 323 323 320 316 313 312 312 312 312 312 313 312 312 311 309 308 308 308 308 307 305 304 304 302 302 301 302 303 306 308 310
322 323 325 325 327 326 324 322 321 323 322 321 320 316 314 312 312 312 312 312 312 312 309 309 309 307 307 306 306 306 305 305 303 302 300 302 300 300 303 303 304 306 307
321 321 321 321 320 321 321 320 319 319 319 317 313 312 312 312 313 312 311 310 308 308 308 307 306 305 303 302 302 302 301 301 300 300 303 304 304 304 303 304 304 304 304
319 319 318 318 318 316 315 314 314 313 313 313 312 312 312 311 311 309 308 307 307 307 307 306 304 301 300 299 298 298 299 298 299 301 302 302 301 302 301 301 300 300 300
318 318 317 317 316 316 315 314 314 312 313 313 312 312 311 310 309 309 308 307 307 306 304 302 301 297 297 297 298 299 299 299 300 298 299 298 298 298 297 297 297 297 297
318 318 317 317 317 316 316 315 315 315 315 314 312 312 311 309 308 307 306 305 304 304 303 302 298 299 299 298 298 298 298 298 298 298 298 298 297 296 296 295 295 295 295
318 318 318 317 316 316 316 315 315 315 314 313 312 311 309 308 307 305 305 306 303 303 302 300 300 300 299 295 297 297 297 297 296 296 295 295 295 295 295 295 295 294 294
318 318 317 316 315 315 315 315 314 314 314 313 312 309 307 305 305 306 306 305 303 301 301 301 300 296 293 295 294 292 291 291 290 290 290 291 292 293 294 294 294 294 294
316 316 316 316 315 314 314 313 313 313 312 309 307 307 306 305 305 304 302 302 301 301 301 300 294 292 291 292 291 290 289 288 288 288 288 289 290 291 291 292 291 290 291
315 315 313 313 312 311 311 310 309 308 307 305 304 303 303 304 303 303 302 302 301 301 300 296 292 291 290 290 289 289 288 288 288 288 288 288 289 289 288 287 288 290 291
313 312 311 310 310 309 308 306 305 303 301 300 300 300 301 303 304 302 301 300 300 299 298 294 293 290 289 289 289 288 288 288 288 288 289 288 288 288 287 287 285 288 289
312 311 310 309 308 306 305 304 303 302 300 299 298 300 303 303 302 302 301 301 299 297 295 293 292 290 289 288 288 288 288 288 288 288 288 287 286 285 286 286 285 284 287
311 310 308 306 305 304 303 302 301 301 299 298 297 297 296 296 298 301 301 297 294 293 294 291 290 289 288 288 288 288 288 288 288 288 287 287 285 285 284 284 284 284 285
311 308 304 304 303 302 301 300 300 299 298 297 296 295 294 295 298 300 296 295 297 294 292 290 289 289 288 289 289 288 288 288 288 287 286 284 283 282 282 283 284 285 285
306 304 305 303 301 300 300 299 298 297 296 295 294 293 292 294 294 295 295 296 293 292 291 289 289 288 288 289 289 288 288 287 286 284 283 283 281 281 282 283 284 285 286
303 303 303 301 299 299 298 297 297 296 295 294 293 293 292 292 293 293 295 294 293 290 291 290 288 289 289 288 288 287 286 284 284 283 283 282 280 280 280 281 282 282 283
302 302 301 299 298 298 297 296 295 295 294 294 293 293 293 292 292 293 295 294 293 293 290 289 289 289 288 288 287 286 285 284 283 282 281 280 280 279 280 280 281 281 281
302 301 300 298 298 297 296 296 295 295 294 294 293 293 293 292 292 293 293 293 292 291 289 289 288 288 288 287 285 284 284 283 282 281 280 279 279 279 279 280 281 281 281
301 300 299 298 297 296 296 295 295 295 294 293 293 293 292 291 292 292 292 292 292 289 289 289 288 288 287 285 283 282 281 280 280 279 279 279 279 279 280 280 280 280 281
301 300 298 297 297 296 295 295 295 294 293 293 293 292 292 291 291 292 292 291 289 289 288 288 288 287 285 284 282 280 279 279 278 278 278 278 278 279 280 280 280 280 280
300 298 297 296 296 295 295 294 294 293 293 293 293 292 291 291 291 291 290 290 290 289 288 287 287 285 284 282 281 280 278 278 277 278 278 278 279 279 279 279 279 279 280
298 297 297 296 294 294 294 293 293 293 293 293 293 290 290 290 290 290 290 290 289 288 287 287 286 285 283 281 280 279 278 277 277 278 278 278 278 278 278 279 279 279 279
297 296 295 294 293 293 291 292 293 293 293 292 292 290 289 290 289 290 289 289 288 288 288 287 285 284 282 281 280 279 277 277 278 278 278 277 277 278 278 278 278 278 279
295 293 292 291 290 290 291 293 293 293 292 292 292 291 288 287 287 289 289 288 288 288 286 285 284 283 282 281 280 278 277 277 278 277 277 277 277 277 277 277 278 278 278
292 291 290 290 290 290 290 290 290 290 291 292 292 290 288 287 287 288 288 288 288 287 285 284 284 283 282 281 280 278 277 277 277 277 277 276 276 276 276 277 277 277 277
290 290 290 290 290 290 290 290 290 290 290 291 291 290 289 287 287 288 288 287 287 285 284 284 284 283 283 282 280 279 277 276 275 276 276 275 275 275 275 276 276 277 277

GFSMW_850_thetae_009.txt.gz
Theta_e
324 325 326 325 325 326 328 328 328 326 324 324 323 322 322 316 314 312 312 312 312 312 312 310 308 308 308 307 305 305 304 303 303 302 302 302 300 300 299 303 304 303 303
326 327 326 325 328 329 328 325 325 324 322 321 321 319 317 313 312 312 312 312 311 310 309 308 307 307 306 304 302 301 300 298 297 297 297 301 300 301 302 300 302 303 303
323 323 324 325 325 324 321 318 319 321 321 321 317 312 312 312 312 312 311 310 309 308 307 306 305 304 303 301 300 298 296 296 296 296 299 300 301 300 299 299 299 300 299
320 320 320 319 318 316 315 314 313 313 313 313 312 312 312 312 311 311 310 308 307 306 306 303 303 303 300 299 297 295 294 295 296 297 298 298 298 298 298 297 296 296 296
318 317 316 316 316 315 315 315 314 315 315 314 313 312 312 311 310 308 307 306 305 304 304 304 305 302 298 298 298 298 293 296 297 297 297 297 296 297 296 296 296 295 294
317 317 317 316 316 315 315 315 315 315 314 314 313 312 311 309 308 307 306 305 305 305 305 304 301 300 299 299 299 296 294 295 295 294 294 293 294 294 294 294 294 294 293
317 317 317 316 316 315 315 315 315 314 314 314 313 313 310 308 307 306 305 303 302 302 301 301 301 300 299 294 292 292 291 291 290 289 289 288 289 290 291 292 292 293 291
317 317 316 316 315 315 314 314 314 313 312 311 308 307 306 303 302 303 303 303 301 302 301 300 298 294 292 291 290 289 289 289 288 288 288 287 288 289 290 290 289 289 290
317 316 316 314 314 313 313 312 310 308 306 304 303 302 300 300 303 304 303 302 301 301 300 297 296 295 292 289 288 288 288 288 288 288 288 288 287 287 288 288 288 287 288
315 314 313 312 311 312 310 307 305 305 304 302 300 299 299 302 301 302 301 301 301 301 300 299 296 292 292 289 288 288 288 288 288 287 287 288 288 288 287 287 286 286 285
312 311 311 311 310 308 306 304 303 302 301 299 298 297 297 296 295 294 296 300 300 299 298 297 293 293 291 289 288 287 288 288 288 288 288 288 287 287 287 286 286 285 285
310 310 310 308 306 304 303 302 302 301 300 299 298 297 295 294 292 293 297 299 298 299 297 296 295 290 289 289 288 288 288 288 288 288 287 287 287 287 286 284 283 283 283
310 309 307 305 304 302 302 302 301 300 299 297 296 295 294 293 292 291 293 296 295 295 296 295 292 290 289 288 288 288 288 288 288 287 287 286 284 283 282 282 282 282 283
309 305 304 304 303 302 301 300 299 298 297 296 296 295 293 292 292 291 292 294 294 296 293 292 290 289 289 288 288 288 288 288 287 286 284 283 283 282 281 281 281 283 284
306 304 304 303 301 300 300 299 298 297 296 296 295 294 293 292 292 291 291 293 295 295 293 291 289 290 288 288 288 288 288 287 285 284 283 283 282 281 280 280 281 281 282
305 303 303 303 301 299 298 297 297 296 296 295 294 293 292 292 292 291 292 293 294 294 291 291 290 289 288 288 288 287 286 285 284 283 282 282 280 280 279 279 280 281 281
303 302 302 300 299 298 297 296 296 296 295 294 294 293 292 292 292 291 291 293 293 293 292 291 289 288 288 288 287 286 284 283 282 281 280 280 279 279 279 279 280 280 280
302 301 300 299 299 297 296 295 295 295 294 294 293 292 292 292 292 291 292 292 292 292 292 289 288 288 288 287 285 284 282 281 280 279 279 278 278 279 279 280 281 280 280
301 301 300 299 297 296 295 295 295 294 294 293 292 292 292 292 291 291 291 291 292 291 288 288 288 288 287 286 284 282 281 281 280 279 279 278 278 279 279 280 280 280 280
301 300 299 297 296 295 295 295 294 294 293 292 292 293 292 290 290 291 290 290 289 289 289 289 288 287 286 284 282 281 280 280 279 279 279 278 278 279 279 279 279 279 279
300 298 297 296 296 295 294 294 293 291 292 293 293 292 291 290 290 290 290 290 290 290 289 287 287 286 284 283 281 280 280 278 278 278 278 278 278 278 278 279 279 279 279
298 297 297 296 294 292 291 290 290 291 292 293 292 292 292 290 289 289 289 289 289 288 287 287 286 285 283 282 281 280 279 278 278 278 278 277 277 278 278 278 278 278 278
297 296 295 292 290 290 290 290 290 290 290 290 290 291 291 290 288 287 288 288 288 287 287 286 285 284 283 282 281 280 279 277 277 277 277 277 277 276 277 277 277 277 278
295 293 291 290 290 290 289 289 290 289 289 289 290 291 291 288 287 287 287 288 287 287 287 285 284 283 283 282 281 280 279 277 276 277 277 277 276 276 276 277 277 277 277
292 290 290 290 290 289 289 290 289 289 289 289 290 290 290 288 287 287 288 288 287 286 285 284 284 283 283 282 281 279 278 277 276 275 276 276 276 276 276 276 276 277 277
290 290 290 290 289 289 289 289 289 289 289 289 289 290 290 289 288 287 287 287 286 285 284 284 284 283 283 282 281 279 278 278 276 275 276 276 275 275 275 275 276 276 277

GFSMW_850_thetae_012.txt.gz
Theta_e
324 325 326 326 325 324 326 326 326 326 325 323 320 320 320 318 315 312 312 312 312 311 310 309 308 308 307 306 305 303 302 302 301 300 301 301 300 299 297 300 300 298 299
324 325 328 329 329 328 326 324 324 323 321 321 321 317 313 312 312 311 311 312 310 310 309 308 308 306 304 303 303 303 300 297 295 294 293 296 295 297 298 294 296 297 296
326 327 327 326 323 320 319 318 318 317 317 314 311 313 312 312 311 311 311 310 310 309 307 307 306 305 305 304 303 300 297 297 295 293 295 297 297 297 295 294 294 295 296
322 322 321 317 315 314 313 313 313 313 314 314 314 313 313 313 312 311 310 309 308 306 305 305 305 304 305 301 299 298 297 297 294 293 295 297 297 297 296 296 295 295 294
319 317 316 315 314 314 315 314 314 314 314 314 314 313 313 312 310 309 308 307 305 304 302 300 302 301 301 299 298 298 297 293 292 292 291 291 291 292 295 294 293 293 292
316 316 316 315 315 315 315 315 315 314 314 313 313 312 311 309 307 305 304 305 302 302 300 301 301 300 299 295 293 292 290 290 289 289 289 288 288 289 290 290 291 291 291
316 316 315 316 315 315 315 314 314 314 313 312 312 309 307 304 302 301 302 303 302 301 300 301 302 300 296 294 292 291 290 288 288 287 287 287 287 287 287 289 288 288 288
316 315 315 315 315 315 314 313 313 312 310 308 306 304 302 300 300 299 297 298 299 300 301 300 300 299 297 297 293 289 288 288 288 287 287 287 287 287 287 287 287 287 286
316 315 314 314 313 313 312 311 309 307 304 301 299 298 297 297 296 296 295 294 294 297 300 300 299 297 298 294 291 288 288 288 287 288 288 288 287 287 288 288 287 286 285
314 313 312 312 312 311 310 307 306 303 302 300 300 299 297 296 295 294 293 292 291 299 299 298 298 297 295 293 290 289 288 288 288 288 288 288 288 288 287 287 287 286 285
313 311 311 311 311 311 311 310 304 303 301 299 298 297 295 295 293 292 292 291 293 298 298 297 296 295 294 290 289 288 288 288 288 288 288 288 287 287 287 286 285 283 283
311 310 310 310 309 308 304 304 302 301 299 298 296 296 295 294 292 291 291 290 291 296 296 295 294 294 294 289 288 288 288 288 288 288 288 287 287 286 284 283 283 282 281
309 310 309 308 305 304 303 302 301 299 298 297 296 295 294 293 292 291 290 290 290 294 294 293 294 293 290 288 289 288 288 288 288 288 287 286 284 283 283 282 282 281 280
309 309 306 304 303 302 304 302 299 298 297 296 295 295 294 293 291 291 291 290 291 293 293 294 292 292 289 289 289 288 288 288 287 287 285 284 283 283 282 281 280 280 280
308 306 305 304 303 304 302 299 298 297 296 295 295 294 293 292 291 291 291 290 292 292 293 293 291 289 290 289 288 288 288 287 286 285 283 282 281 281 280 280 280 280 280
307 305 304 304 302 301 300 299 297 296 295 295 294 294 293 291 291 291 291 291 292 292 291 292 291 291 289 288 288 288 287 286 284 282 281 280 280 279 279 279 279 279 280
307 304 303 301 301 300 299 297 296 295 295 295 294 293 291 292 291 291 291 291 292 292 291 291 291 290 288 288 288 287 286 283 281 281 280 279 279 279 279 279 279 279 280
306 303 301 301 300 299 297 296 295 295 295 294 293 292 292 292 291 290 290 290 291 291 291 291 289 288 288 288 287 286 283 282 281 280 279 279 279 279 278 279 280 280 280
304 302 301 300 298 297 296 295 295 294 294 293 291 292 292 292 291 290 290 290 290 290 289 288 288 289 287 286 285 283 281 281 281 280 279 279 278 278 279 279 279 279 279
303 301 300 299 297 296 295 295 294 293 291 291 292 292 292 291 291 289 290 290 290 290 290 289 288 287 287 285 283 281 281 281 280 279 279 278 278 278 278 278 278 278 279
304 301 299 297 296 296 293 292 290 290 290 290 290 290 291 291 291 289 289 289 289 289 289 288 287 287 285 283 282 281 280 279 278 278 278 278 278 277 277 277 278 278 278
300 298 297 296 294 291 290 290 289 289 289 289 289 289 289 291 291 289 287 287 289 288 287 287 287 285 284 282 282 281 280 278 277 277 278 278 277 277 276 276 277 277 277
298 297 296 293 291 290 290 289 289 289 289 289 289 289 290 291 290 288 287 287 288 287 287 287 286 284 283 282 282 281 280 279 277 276 276 277 276 276 276 276 277 277 277
297 297 292 291 290 290 289 289 289 289 289 289 289 289 290 290 290 288 287 287 287 287 287 286 285 284 283 283 282 281 279 279 278 276 276 276 276 276 276 276 276 276 277
295 292 291 290 290 289 289 289 289 289 289 289 289 289 289 289 289 288 287 287 287 286 285 284 284 284 283 282 282 281 279 279 278 277 276 276 276 276 276 275 275 276 277
291 291 290 290 290 289 289 289 289 289 289 288 289 288 289 289 289 288 287 287 286 285 284 284 284 284 283 282 282 280 280 279 278 278 277 276 276 275 275 275 275 275 276

GFSMW_850_thetae_015.txt.gz
Theta_e
325 325 325 326 326 325 324 326 326 326 324 324 323 321 320 319 313 312 312 311 312 312 309 309 308 308 307 306 305 305 305 304 302 299 298 297 296 298 295 295 299 297 294
324 325 326 326 327 326 325 326 323 323 321 321 320 313 311 312 311 311 312 311 311 310 309 308 306 305 304 304 304 303 300 298 297 296 297 298 298 299 297 299 295 296 293
327 329 326 323 320 320 320 320 318 318 318 313 312 313 312 312 312 312 311 311 309 307 306 305 304 301 301 301 301 299 298 299 298 295 296 297 297 297 297 297 296 297 296
325 322 318 317 316 314 313 313 313 313 313 314 313 313 313 313 312 311 309 307 306 305 303 301 300 299 301 300 299 299 298 295 294 292 294 291 294 294 293 294 295 294 293
320 317 315 314 313 313 313 313 314 314 314 313 313 313 312 311 310 307 305 304 305 304 301 299 297 298 301 300 299 296 296 293 291 292 290 291 291 292 293 290 291 291 291
316 314 314 313 314 314 314 314 314 314 314 313 312 311 310 308 305 303 302 301 300 297 296 296 298 299 299 300 297 295 296 294 291 288 288 289 289 289 290 290 289 289 289
315 314 314 314 314 314 314 314 314 314 313 311 308 305 302 300 299 299 297 296 295 295 294 297 300 300 299 297 295 297 293 289 288 287 288 288 289 289 289 289 288 288 288
315 314 314 315 314 314 314 313 313 312 308 304 302 300 299 297 296 296 295 293 293 292 292 294 299 300 299 296 297 294 289 288 288 288 288 288 288 287 288 289 288 288 288
315 315 315 314 313 313 313 311 308 306 304 302 300 299 297 296 295 295 293 292 291 291 291 295 299 299 297 295 294 291 289 288 287 288 288 288 288 287 287 288 287 287 287
316 315 313 312 311 311 309 310 307 304 302 300 299 297 296 296 295 294 293 291 290 290 292 298 298 297 297 294 292 289 289 288 288 288 288 288 288 287 287 287 286 286 285
315 314 311 310 309 308 307 305 304 304 304 299 298 297 296 296 295 294 292 290 290 290 293 296 296 295 295 293 294 290 288 288 288 288 288 288 287 287 286 286 285 284 283
314 311 309 309 308 305 305 305 304 304 299 298 297 296 296 295 294 292 290 290 290 290 292 295 295 294 293 293 292 289 289 288 288 288 288 287 287 286 285 285 284 283 283
311 308 308 307 305 303 303 304 303 300 298 297 296 296 295 294 293 291 290 291 290 290 291 292 293 293 293 292 289 289 289 288 288 288 287 287 286 285 284 283 283 282 282
309 309 308 307 305 303 304 305 300 299 298 296 296 295 294 294 293 291 290 290 290 290 292 292 292 293 290 289 289 289 289 288 288 287 286 285 284 283 282 282 282 281 281
309 309 309 306 304 305 304 300 299 298 297 296 295 295 294 293 292 291 290 290 290 291 292 292 292 292 291 290 290 289 288 288 287 286 284 282 282 281 280 280 280 280 280
309 309 307 305 308 303 301 300 298 297 296 295 295 294 294 293 291 291 290 290 290 290 291 291 291 291 291 291 289 288 288 287 286 283 282 281 281 280 279 279 279 279 280
310 309 307 305 302 301 300 299 298 296 295 295 295 294 293 292 291 291 290 290 290 290 291 291 291 291 290 288 288 288 287 286 283 282 281 280 279 279 279 279 279 280 280
310 308 305 302 301 300 300 298 297 296 295 295 293 293 291 291 292 291 290 290 290 290 290 290 289 288 288 288 287 287 285 283 282 281 280 279 279 279 278 279 279 280 280
310 307 303 301 300 300 298 297 296 296 294 292 290 290 291 291 292 291 291 289 289 290 290 290 289 289 289 287 287 285 283 282 281 280 279 279 278 278 278 279 279 279 279
308 304 302 301 300 298 297 296 295 292 290 290 289 289 289 290 290 290 291 289 289 289 289 289 289 288 287 287 285 283 282 281 281 279 278 279 278 278 278 278 278 277 279
306 303 303 299 297 297 296 293 291 290 289 289 289 289 289 289 289 290 291 289 287 288 289 288 288 287 287 285 284 282 282 280 280 278 277 278 278 277 277 276 276 277 277
305 305 299 297 297 295 292 290 290 289 289 289 289 289 289 289 290 290 290 288 287 287 288 287 286 287 286 284 283 282 281 280 279 278 277 277 277 277 276 276 276 277 277
301 298 297 301 294 291 290 290 289 289 289 289 289 289 289 289 289 290 290 288 287 287 287 287 287 286 285 283 283 282 281 280 279 279 276 276 276 276 276 275 276 276 277
297 297 301 294 291 290 290 289 289 289 289 289 289 289 289 289 289 289 289 288 287 287 287 286 285 284 284 283 283 282 281 280 279 279 277 277 276 276 276 275 275 275 276
298 299 292 291 290 290 289 289 289 289 289 289 289 288 288 289 289 289 289 288 287 287 286 284 284 284 284 283 283 282 281 280 280 279 279 277 277 276 276 275 275 274 276
299 291 291 290 290 290 289 289 290 289 289 289 287 288 288 288 289 289 288 288 287 286 285 285 284 284 283 283 283 282 281 280 280 279 278 278 277 276 276 276 275 275 274